Wind_Speed
3 3 3 3 3 3 3 3 3 3 3 3 3 3 3 3 3 3 3 3 3 2 2 2 2 1 1 1 1 1 2 2 2 2 2 2 2 3 3 3 3 3 2
4 3 4 4 4 4 3 3 3 3 2 2 3 2 2 2 2 2 2 2 2 2 2 1 1 1 0 0 1 1 1 1 2 3 3 2 2 3 3 3 4 4 4
4 4 4 4 4 4 3 3 3 3 2 2 2 1 1 1 1 1 1 1 1 1 1 1 1 0 1 0 0 1 2 2 2 3 3 3 3 3 3 4 4 4 4
5 5 5 5 4 4 4 4 4 3 3 2 1 1 1 1 0 0 0 1 1 1 1 1 1 1 1 1 1 2 2 3 3 3 4 4 4 4 4 4 4 5 5
6 6 5 5 5 5 5 4 5 4 4 3 3 3 2 2 2 2 1 1 1 1 2 2 2 2 2 2 2 2 2 3 4 4 5 5 6 6 6 6 6 6 6
6 6 6 6 6 6 6 6 6 5 5 4 4 4 4 4 4 3 3 3 3 3 3 3 3 3 3 3 4 4 4 4 4 5 5 6 6 7 7 7 7 7 8
6 7 7 7 7 7 7 7 7 7 6 6 6 6 6 5 5 5 5 5 5 5 4 4 4 4 4 4 5 5 5 5 6 6 7 7 8 8 8 9 9 9 10
7 8 8 9 8 8 8 8 8 8 8 7 7 7 7 7 7 7 7 7 6 6 6 6 6 6 6 6 6 7 7 7 8 8 8 9 9 9 10 11 11 11 12
8 9 9 10 10 10 10 10 10 10 9 9 9 9 9 9 9 9 9 9 8 8 8 8 8 8 8 8 8 8 9 9 9 9 10 10 11 11 11 12 12 13 13
9 10 10 10 10 10 11 11 11 11 11 11 11 11 11 11 11 11 11 11 11 11 11 10 10 10 10 10 10 10 10 11 11 12 12 12 12 12 13 13 14 14 15
10 10 11 11 12 12 13 13 12 13 13 14 14 13 13 13 13 13 13 13 13 13 13 13 13 13 13 13 13 13 13 13 13 14 13 14 14 14 15 15 16 16 17
10 11 12 13 14 14 15 15 15 14 15 15 15 16 16 15 16 16 15 16 16 16 16 16 16 16 16 16 16 16 16 16 16 16 16 17 17 17 17 17 18 18 19
12 12 13 14 15 15 16 16 16 16 17 17 17 17 17 18 18 18 18 19 18 18 18 19 19 19 18 18 18 18 18 18 18 19 19 20 20 20 20 20 20 21 21
13 14 15 15 15 16 17 17 17 18 18 19 19 19 19 19 19 19 20 21 21 20 20 21 21 21 21 21 21 21 21 21 22 22 22 22 22 22 23 23 23 23 24
14 15 15 17 17 17 18 18 18 18 19 19 20 21 21 21 21 21 21 22 22 22 22 23 23 23 23 23 24 24 24 24 24 24 24 25 25 25 25 26 26 26 26
14 15 16 17 18 18 19 19 19 19 20 21 21 22 22 21 22 22 22 23 22 23 23 23 24 25 26 26 26 26 26 26 27 27 27 27 28 28 28 28 28 28 28
15 16 16 17 18 19 19 19 19 19 20 21 22 22 22 23 23 24 24 24 24 24 24 24 25 26 27 27 27 27 27 28 28 29 29 29 30 30 30 30 29 30 30
15 16 17 18 18 18 18 19 20 21 22 22 23 23 23 24 25 26 26 26 25 24 25 25 26 27 27 27 28 28 28 29 29 29 30 31 32 32 32 32 32 32 32
15 16 18 18 19 18 19 20 20 21 23 23 23 24 25 25 26 26 27 27 27 26 27 27 27 28 28 29 28 28 29 30 30 30 31 31 32 34 35 34 34 33 34
16 17 18 18 19 20 21 21 22 22 23 24 24 25 25 26 26 26 27 26 26 26 27 28 28 29 29 29 29 29 30 31 31 32 32 33 33 35 35 35 35 35 36
17 17 18 18 19 20 21 22 22 22 23 24 24 25 24 24 25 26 26 26 25 26 26 27 28 28 28 29 29 30 30 31 32 32 32 33 33 35 36 36 36 36 36
17 17 17 18 20 21 21 22 23 23 24 24 24 23 24 24 24 24 25 25 25 25 26 26 27 27 28 28 29 30 31 32 33 33 33 33 34 34 35 35 35 37 38
18 18 19 20 21 21 22 23 23 24 24 24 24 24 24 23 22 22 23 24 26 26 27 28 28 29 29 30 31 31 31 32 33 33 33 34 34 35 36 36 37 38 39
19 19 20 21 21 21 21 22 22 23 23 24 24 24 23 22 22 23 25 26 27 28 28 29 30 30 31 32 32 32 32 33 34 35 36 37 37 37 39 39 39 40 41
19 20 21 20 21 21 21 21 22 21 22 22 22 23 23 23 23 23 24 26 27 28 28 29 30 31 32 33 33 34 35 36 36 37 38 38 39 39 40 40 41 40 40
20 21 21 21 21 20 20 20 21 20 20 21 21 22 22 23 23 24 25 26 27 28 28 29 30 31 32 33 34 35 35 36 36 37 38 39 39 40 41 41 41 41 42
Wind_Direction
172 175 172 165 158 152 147 140 131 131 125 111 103 110 102 82 75 78 81 83 86 84 91 97 92 88 89 143 177 173 183 193 195 192 200 211 223 233 244 246 243 236 239
199 196 195 184 175 168 166 160 150 138 134 126 114 115 106 79 70 68 82 83 80 70 76 92 110 87 73 207 210 217 214 208 202 209 215 221 233 245 251 255 248 249 254
210 202 202 191 182 174 174 177 173 164 160 149 133 138 143 105 74 66 78 72 72 65 57 45 19 13 352 356 243 234 235 233 224 224 229 238 247 251 254 257 257 257 261
222 213 214 205 197 193 193 193 194 193 185 181 187 201 208 238 261 343 54 47 51 32 13 354 331 326 327 319 292 259 246 246 243 242 246 250 254 252 252 257 260 261 262
228 224 221 214 209 207 213 215 217 219 223 224 229 229 232 251 264 258 258 277 298 314 327 326 316 296 298 298 292 279 264 258 253 252 253 255 257 255 254 256 258 260 264
228 224 222 220 219 223 227 229 231 232 239 243 240 240 240 256 264 264 267 276 280 287 298 305 300 296 292 289 286 276 271 270 269 263 261 261 262 263 260 258 258 260 265
232 228 230 228 226 230 234 239 242 243 247 252 255 254 249 254 258 265 270 278 281 284 290 291 289 288 287 287 286 279 272 269 271 269 268 268 267 267 265 262 261 264 266
239 234 236 235 234 236 238 243 246 249 251 253 257 258 258 254 255 260 268 271 276 279 284 285 283 281 282 283 282 279 274 270 270 271 271 270 270 269 269 268 265 267 269
247 246 245 242 243 244 245 246 250 251 254 255 259 262 264 258 255 259 264 265 269 272 276 279 279 277 276 279 281 280 276 272 272 272 271 270 270 271 270 269 268 269 272
255 253 250 247 247 248 249 251 254 254 255 257 259 262 264 260 257 260 263 265 266 269 272 275 277 276 275 277 277 278 278 275 273 273 273 272 272 271 271 269 270 271 272
260 255 254 252 252 252 252 255 258 258 258 260 260 260 262 261 260 260 261 264 266 267 269 271 273 275 275 275 274 275 275 276 275 273 274 274 274 273 271 270 270 272 272
262 258 259 260 259 258 259 260 264 263 264 263 261 260 261 261 262 263 262 264 266 268 269 270 271 273 273 272 272 274 275 274 274 274 274 274 274 273 272 271 271 272 271
266 266 267 267 267 264 264 267 269 268 266 265 263 263 262 262 263 265 264 265 266 266 269 271 271 272 272 270 271 274 275 274 274 275 275 276 275 275 272 272 272 271 270
272 272 272 271 270 267 266 268 270 271 270 269 266 265 265 265 263 265 267 266 265 266 269 270 272 272 271 271 272 274 274 274 275 275 276 276 276 275 274 273 273 272 271
274 275 274 272 272 271 269 270 270 271 270 270 271 270 269 268 267 267 269 269 269 269 268 269 272 272 272 273 272 273 273 274 275 276 277 276 274 275 275 274 273 272 272
277 277 279 276 274 272 271 270 271 272 272 271 272 271 270 270 270 268 270 270 270 272 271 272 274 274 274 275 274 273 272 273 275 275 276 277 276 274 274 272 272 272 271
277 275 278 277 273 272 270 270 271 274 274 274 275 273 271 270 270 270 270 270 272 273 271 272 272 274 275 275 275 275 274 273 274 274 275 276 276 276 275 272 272 272 271
277 275 276 277 277 275 271 272 273 275 276 275 277 275 272 272 271 271 270 270 272 272 274 275 275 276 276 277 277 276 275 276 276 275 275 275 275 276 275 274 273 273 271
281 277 276 276 277 276 275 275 274 275 277 278 279 276 273 273 272 271 271 272 272 273 274 274 275 275 276 277 278 276 275 276 276 276 275 276 276 275 275 273 274 273 273
285 282 280 278 277 278 279 278 277 277 279 278 279 278 276 274 273 273 272 272 272 273 275 275 275 276 276 277 277 276 277 277 277 278 276 276 276 276 275 275 276 276 275
288 287 285 282 281 281 280 280 279 279 280 280 279 279 278 278 277 276 275 273 273 276 278 277 277 277 277 278 279 279 280 279 281 281 280 278 277 277 278 278 278 278 277
294 292 290 285 283 282 282 282 281 280 280 281 281 281 281 281 277 276 275 275 275 277 278 279 279 281 281 281 281 281 281 281 282 281 282 281 280 279 279 279 279 278 278
295 293 291 289 288 288 286 284 282 281 281 282 284 283 282 282 281 278 277 278 277 277 278 279 280 281 281 281 280 281 281 281 281 281 281 282 281 280 279 279 279 280 280
296 295 294 293 291 289 289 286 285 283 283 285 285 284 283 283 283 281 280 281 280 278 278 279 280 281 281 283 283 282 282 282 281 281 282 282 282 282 282 281 281 283 283
298 297 299 296 294 293 291 290 288 287 285 285 286 286 286 286 284 282 282 284 283 282 280 281 282 282 283 283 284 283 283 283 283 283 283 283 283 283 283 283 284 284 284
299 298 297 295 295 295 294 292 291 290 288 287 287 288 288 288 286 285 286 288 287 285 284 284 284 284 285 286 286 286 285 285 285 286 285 285 285 285 285 285 285 285 285
Height
5907 5907 5907 5907 5908 5908 5909 5909 5909 5909 5910 5910 5910 5910 5910 5910 5910 5910 5909 5909 5909 5908 5908 5908 5908 5908 5908 5908 5908 5908 5908 5908 5908 5909 5909 5909 5909 5910 5910 5910 5910 5910 5911
5906 5907 5907 5907 5908 5908 5908 5909 5909 5910 5910 5910 5910 5910 5911 5911 5910 5910 5909 5909 5909 5909 5909 5908 5908 5908 5908 5908 5908 5908 5908 5908 5908 5908 5909 5909 5909 5909 5909 5909 5910 5910 5910
5906 5906 5907 5907 5907 5908 5908 5909 5909 5910 5910 5910 5910 5911 5911 5911 5911 5910 5910 5909 5909 5909 5909 5909 5908 5908 5908 5907 5907 5907 5907 5907 5908 5908 5908 5908 5908 5908 5909 5909 5909 5909 5909
5905 5906 5906 5907 5907 5907 5908 5909 5909 5909 5910 5910 5910 5911 5911 5911 5911 5910 5910 5909 5909 5909 5909 5908 5908 5908 5908 5907 5907 5907 5907 5907 5907 5907 5907 5907 5907 5907 5908 5908 5908 5908 5908
5904 5905 5906 5906 5906 5907 5907 5908 5909 5909 5909 5910 5910 5910 5910 5910 5910 5910 5910 5909 5909 5909 5908 5908 5908 5908 5907 5907 5907 5906 5906 5906 5906 5906 5906 5906 5906 5906 5906 5906 5906 5906 5907
5903 5904 5904 5905 5905 5906 5907 5907 5908 5908 5909 5909 5909 5910 5910 5909 5909 5909 5909 5909 5908 5908 5908 5907 5907 5907 5906 5906 5906 5905 5905 5905 5905 5905 5905 5905 5905 5905 5905 5905 5905 5905 5905
5902 5902 5903 5904 5904 5905 5906 5906 5907 5907 5908 5908 5909 5909 5908 5908 5908 5908 5908 5908 5908 5907 5907 5907 5906 5906 5906 5905 5905 5905 5904 5904 5903 5903 5903 5903 5903 5903 5903 5903 5903 5903 5903
5900 5901 5902 5902 5903 5904 5904 5905 5906 5906 5907 5907 5907 5907 5907 5908 5907 5907 5907 5907 5907 5906 5906 5906 5905 5905 5904 5904 5903 5903 5903 5902 5902 5902 5901 5901 5901 5901 5900 5900 5900 5900 5900
5899 5899 5900 5900 5901 5902 5903 5903 5904 5904 5905 5905 5905 5905 5905 5905 5905 5905 5905 5905 5905 5905 5904 5904 5904 5903 5903 5902 5902 5901 5901 5900 5900 5899 5899 5899 5898 5898 5898 5897 5897 5897 5897
5897 5897 5898 5899 5899 5900 5901 5901 5902 5902 5903 5903 5903 5903 5903 5902 5903 5903 5903 5903 5902 5902 5902 5902 5901 5901 5900 5900 5899 5899 5898 5898 5897 5897 5896 5896 5895 5895 5895 5894 5894 5893 5893
5895 5896 5896 5896 5897 5898 5898 5899 5899 5899 5900 5900 5900 5900 5900 5900 5900 5900 5900 5900 5900 5899 5899 5899 5898 5898 5897 5897 5897 5896 5895 5895 5894 5894 5893 5893 5892 5891 5891 5890 5890 5890 5889
5893 5894 5894 5894 5895 5895 5895 5895 5896 5896 5896 5896 5897 5897 5897 5897 5897 5896 5896 5896 5896 5896 5895 5895 5895 5894 5894 5893 5893 5892 5892 5891 5891 5890 5889 5889 5888 5887 5887 5886 5886 5885 5885
5891 5892 5891 5891 5892 5892 5892 5892 5892 5892 5892 5892 5892 5892 5892 5893 5893 5893 5892 5892 5892 5892 5891 5891 5890 5890 5889 5889 5889 5888 5887 5887 5886 5885 5885 5884 5883 5882 5882 5881 5881 5880 5879
5889 5889 5889 5888 5888 5888 5888 5888 5888 5888 5888 5888 5888 5888 5888 5888 5888 5888 5887 5887 5887 5887 5887 5886 5885 5885 5884 5884 5883 5883 5882 5881 5881 5880 5879 5878 5878 5877 5876 5875 5875 5874 5873
5886 5885 5885 5885 5885 5884 5884 5884 5884 5884 5884 5884 5883 5883 5883 5883 5883 5883 5882 5882 5882 5881 5881 5881 5880 5879 5878 5878 5877 5877 5876 5875 5875 5874 5873 5872 5871 5870 5869 5869 5868 5867 5866
5882 5882 5881 5881 5881 5880 5880 5880 5880 5880 5879 5879 5878 5878 5878 5877 5877 5877 5877 5876 5876 5876 5875 5875 5874 5873 5872 5871 5870 5870 5869 5869 5868 5867 5866 5865 5864 5863 5862 5861 5860 5859 5859
5879 5878 5877 5877 5876 5876 5876 5875 5875 5875 5874 5874 5873 5872 5872 5872 5871 5871 5870 5870 5870 5869 5869 5868 5867 5866 5865 5864 5863 5862 5861 5861 5860 5860 5859 5858 5857 5855 5854 5853 5852 5851 5850
5874 5874 5874 5873 5872 5872 5871 5871 5870 5870 5869 5868 5867 5867 5866 5865 5865 5864 5864 5864 5863 5863 5862 5861 5861 5860 5858 5857 5856 5855 5854 5853 5852 5852 5850 5849 5848 5847 5846 5845 5844 5843 5842
5871 5870 5870 5869 5868 5868 5867 5866 5865 5864 5864 5863 5862 5861 5860 5859 5858 5857 5857 5857 5856 5856 5855 5854 5854 5853 5851 5850 5849 5848 5846 5845 5844 5843 5842 5841 5839 5838 5837 5836 5835 5834 5833
5867 5866 5866 5864 5864 5863 5862 5861 5860 5859 5858 5856 5855 5854 5853 5852 5851 5850 5850 5849 5849 5849 5848 5847 5846 5845 5844 5843 5841 5840 5838 5837 5836 5834 5833 5832 5830 5829 5828 5827 5825 5824 5823
5863 5862 5861 5860 5859 5858 5857 5856 5854 5853 5852 5850 5849 5847 5846 5845 5843 5842 5842 5842 5842 5841 5840 5839 5839 5837 5836 5835 5834 5832 5830 5828 5827 5825 5824 5822 5821 5820 5818 5817 5815 5814 5813
5859 5858 5856 5855 5854 5853 5851 5850 5848 5847 5845 5844 5843 5841 5839 5838 5836 5835 5835 5835 5835 5834 5833 5832 5831 5830 5829 5827 5826 5824 5822 5820 5819 5817 5815 5813 5811 5809 5808 5806 5805 5803 5802
5855 5854 5852 5850 5849 5847 5845 5844 5842 5841 5839 5838 5837 5835 5833 5831 5829 5829 5829 5828 5828 5826 5826 5825 5823 5822 5820 5819 5817 5815 5813 5811 5809 5807 5806 5804 5802 5799 5797 5796 5794 5792 5790
5851 5849 5847 5845 5843 5841 5840 5838 5836 5835 5834 5833 5831 5829 5828 5826 5824 5823 5823 5822 5820 5819 5818 5816 5815 5814 5812 5810 5808 5806 5804 5802 5800 5798 5796 5794 5792 5789 5787 5785 5783 5781 5779
5847 5845 5842 5840 5838 5836 5834 5833 5831 5829 5828 5827 5826 5824 5822 5821 5819 5818 5816 5815 5813 5811 5809 5808 5806 5804 5803 5801 5799 5797 5794 5792 5790 5788 5786 5783 5781 5779 5776 5774 5771 5769 5767
5842 5840 5838 5836 5834 5832 5830 5828 5826 5824 5823 5822 5820 5818 5817 5815 5813 5811 5810 5808 5806 5804 5802 5800 5798 5796 5793 5791 5789 5787 5784 5782 5780 5778 5775 5772 5770 5767 5765 5762 5759 5757 5755